Regional Weather Roundup
Issued by NWS

Home | Current Version | Previous Version | Graphics & Text | Print | Product List | Glossary On
Versions: 1 2 3 4 5 6 7 8 9 10 11 12 13 14 15 16 17 18 19 20 21 22 23 24 25 26 27 28 29 30 31 32 33 34 35 36 37 38 39 40 41 42 43 44 45 46 47 48 49 50
000
ASUS43 KLMK 072002
RWRKY
KENTUCKY REGIONAL WEATHER ROUNDUP
NATIONAL WEATHER SERVICE LOUISVILLE KY
400 PM EDT TUE JUL 07 2015

NOTE "FAIR" INDICATES FEW OR NO CLOUDS BELOW 12,000 FEET
WITH NO SIGNIFICANT WEATHER AND/OR OBSTRUCTIONS TO VISIBILITY.

KYZ001>023-026-027-061>063-070>075-072100-
WESTERN AND SOUTH CENTRAL KENTUCKY

CITY           SKY/WX    TMP DP  RH WIND       PRES   REMARKS
PADUCAH        LGT RAIN  82  75  79 SW5       29.97S
HENDERSON      CLOUDY    73  70  88 SW10G18   29.97F
OWENSBORO      LGT RAIN  76  74  93 W12       30.00F
HOPKINSVILLE   PTSUNNY   86  74  66 SW13G20   30.01F HX  93
BOWLING GREEN  CLOUDY    88  70  55 SW15      30.02F HX  93
GLASGOW        NOT AVBL
$$

KYZ024-025-028>034-038-045-046-053-072100-
NORTH CENTRAL KENTUCKY

CITY           SKY/WX    TMP DP  RH WIND       PRES   REMARKS
LOUISVILLE/SDF LGT RAIN  75  72  90 SW9       29.99S
LOUISVILLE/LOU LGT RAIN  75  71  87 SW7G18    30.00R
FORT KNOX      CLOUDY    73  71  92 W6        30.00S
$$

KYZ035>037-039>044-047>052-055>060-089>105-072100-
NORTHEAST KENTUCKY

CITY           SKY/WX    TMP DP  RH WIND       PRES   REMARKS
LEXINGTON      CLOUDY    80  73  79 SW13      30.01F
COVINGTON      LGT RAIN  76  71  85 SW13G24   29.96R
FRANKFORT      CLOUDY    77  73  87 SW7       29.99F
$$

KYZ054-064>069-076>088-106>120-072100-
SOUTHEAST KENTUCKY

CITY           SKY/WX    TMP DP  RH WIND       PRES   REMARKS
JACKSON        PTSUNNY   79  72  79 VRB3      30.07S
LONDON         PTSUNNY   88  65  46 SW10      30.07S HX  90
SOMERSET       NOT AVBL
MIDDLESBORO    NOT AVBL
MONTICELLO     PTCLDY    87  72  61 SW12      30.09S HX  93
$$



USA.gov is the U.S. government's official web portal to all federal, state and local government web resources and services.